datetime,delta storage
1962-12-03,999.999969
1962-12-04,899.997803
1962-12-05,900.001465
1962-12-06,899.997803
1962-12-07,999.999756
1962-12-08,800.003418
1962-12-09,899.997559
1962-12-10,1000.0
1962-12-11,799.999512
1962-12-12,700.0
1962-12-13,800.0
1962-12-14,800.00293
1962-12-15,799.999023
1962-12-16,700.000977
1962-12-17,799.999023
1962-12-18,99.9980469
1962-12-19,200.000977
1962-12-20,99.9990235
1962-12-21,200.0
1962-12-22,100.00293
1962-12-23,0.0
1962-12-24,0.0
1962-12-25,99.9980468
1962-12-26,99.9990235
1962-12-27,100.001953
1962-12-28,99.9980469
1962-12-29,-399.99707
1962-12-30,-400.00195
1962-12-31,-299.99902
1963-01-01,-200.00098
1963-01-02,-200.00098
1963-01-03,100.00293
1963-01-04,99.9980468
1963-01-05,200.000977
1963-01-06,299.999023
1963-01-07,299.999024
1963-01-08,200.000977
1963-01-09,299.999024
1963-01-10,200.000977
1963-01-11,299.999024
1963-01-12,100.00293
1963-01-13,99.9980468
1963-01-14,99.9990235
1963-01-15,0.0
1963-01-16,0.0
1963-01-17,-99.999024
1963-01-18,-99.998047
1963-01-19,-100.00293
1963-01-20,-99.998047
1963-01-21,-100.00195
1963-01-22,-99.999024
1963-01-23,-99.998047
1963-01-24,0.0
1963-01-25,-100.00293
1963-01-26,-99.998047
1963-01-27,-100.00195
1963-01-28,0.0
1963-01-29,0.0
1963-01-30,0.0
1963-01-31,100.001953
1963-02-01,0.0
1963-02-02,299.999023
1963-02-03,299.999024
1963-02-04,200.000977
1963-02-05,500.0
1963-02-06,500.0
1963-02-07,500.0
1963-02-08,500.000977
1963-02-09,599.998047
1963-02-10,700.0
1963-02-11,600.001953
1963-02-12,399.998047
1963-02-13,500.0
1963-02-14,400.001953
1963-02-15,500.0
1963-02-16,399.998047
1963-02-17,400.001953
1963-02-18,500.0
1963-02-19,299.998047
1963-02-20,500.0
1963-02-21,400.001953
1963-02-22,399.998047
1963-02-23,500.0
1963-02-24,599.998047
1963-02-25,500.0
1963-02-26,600.005859
1963-02-27,599.998047
1963-02-28,500.0
1963-03-01,1299.99609
1963-03-02,1100.00586
1963-03-03,1199.99805
1963-03-04,1199.99609
1963-03-05,800.003906
1963-03-06,900.0
1963-03-07,1400.00391
1963-03-08,1500.0
1963-03-09,1199.99609
1963-03-10,1199.99609
1963-03-11,1200.00391
1963-03-12,1100.0
1963-03-13,1099.99609
1963-03-14,1100.0
1963-03-15,1200.00391
1963-03-16,1199.99609
1963-03-17,1200.00781
1963-03-18,1199.99609
1963-03-19,1199.99609
1963-03-20,1300.00391
1963-03-21,1300.00391
1963-03-22,1299.99219
1963-03-23,1600.0
1963-03-24,1600.00781
1963-03-25,1699.99609
1963-03-26,1800.00391
1963-03-27,1799.99219
1963-03-28,1900.00391
1963-03-29,2000.00391
1963-03-30,2099.99609
1963-03-31,2100.0
1963-04-01,2200.00781
1963-04-02,2199.99219
1963-04-03,2200.00781
1963-04-04,2000.0
1963-04-05,2299.99219
1963-04-06,2100.0
1963-04-07,2100.00781
1963-04-08,2100.0
1963-04-09,2099.99219
1963-04-10,2200.0
1963-04-11,2200.0
1963-04-12,2200.00781
1963-04-13,2200.0
1963-04-14,2000.0
1963-04-15,2099.99219
1963-04-16,1900.00781
1963-04-17,1800.0
1963-04-18,1899.99219
1963-04-19,1900.0
1963-04-20,1600.0
1963-04-21,1600.00781
1963-04-22,1700.0
1963-04-23,1399.99219
1963-04-24,1500.0
1963-04-25,1700.0
1963-04-26,1700.00781
1963-04-27,1399.99219
1963-04-28,1600.00781
1963-04-29,1500.0
1963-04-30,1700.0
1963-05-01,1800.0
1963-05-02,2000.0
1963-05-03,2000.00781
1963-05-04,1799.98438
1963-05-05,2000.0
1963-05-06,1900.0
1963-05-07,1900.0
1963-05-08,2000.0
1963-05-09,1800.0
1963-05-10,2500.0
1963-05-11,2700.0
1963-05-12,3000.0
1963-05-13,3200.0
1963-05-14,4200.01563
1963-05-15,3399.98438
1963-05-16,2800.0
1963-05-17,2600.0
1963-05-18,1900.0
1963-05-19,2000.0
1963-05-20,1700.0
1963-05-21,1600.01563
1963-05-22,2199.98438
1963-05-23,2100.0
1963-05-24,3100.0
1963-05-25,3600.01563
1963-05-26,4399.98438
1963-05-27,5200.0
1963-05-28,6300.0
1963-05-29,6600.01563
1963-05-30,7299.98438
1963-05-31,7300.01563
1963-06-01,7699.98438
1963-06-02,8100.0
1963-06-03,9100.01563
1963-06-04,9799.96875
1963-06-05,10200.0156
1963-06-06,12100.0
1963-06-07,11400.0
1963-06-08,11699.9688
1963-06-09,11700.0313
1963-06-10,11799.9688
1963-06-11,9100.0
1963-06-12,7700.03125
1963-06-13,7799.96875
1963-06-14,7900.0
1963-06-15,8100.0
1963-06-16,9800.03125
1963-06-17,9800.0
1963-06-18,13100.0
1963-06-19,18799.9688
1963-06-20,20100.0313
1963-06-21,17100.0
1963-06-22,16499.9688
1963-06-23,13300.0313
1963-06-24,13199.9688
1963-06-25,13600.0313
1963-06-26,11099.9688
1963-06-27,10200.0313
1963-06-28,9300.0
1963-06-29,7700.0
1963-06-30,5500.0
1963-07-01,5000.0
1963-07-02,6200.0
1963-07-03,5700.0
1963-07-04,5699.9375
1963-07-05,5700.0625
1963-07-06,5500.0
1963-07-07,5299.9375
1963-07-08,4300.0625
1963-07-09,4600.0
1963-07-10,5300.0
1963-07-11,6600.0
1963-07-12,3500.0
1963-07-13,5400.0
1963-07-14,4799.9375
1963-07-15,6100.0625
1963-07-16,4800.0
1963-07-17,4900.0
1963-07-18,3400.0
1963-07-19,3400.0
1963-07-20,2700.0
1963-07-21,2600.0
1963-07-22,2700.0
1963-07-23,1800.0
1963-07-24,1900.0
1963-07-25,3600.0
1963-07-26,3800.0
1963-07-27,1700.0
1963-07-28,1700.0
1963-07-29,1700.0
1963-07-30,2199.9375
1963-07-31,2200.0625
1963-08-01,1900.0
1963-08-02,2600.0
1963-08-03,1700.0
1963-08-04,1800.0
1963-08-05,1799.9375
1963-08-06,1600.0625
1963-08-07,1700.0
1963-08-08,1300.0
1963-08-09,899.9375
1963-08-10,3500.0
1963-08-11,3500.0
1963-08-12,5300.0625
1963-08-13,3350.0
1963-08-14,3349.9375
1963-08-15,3100.0625
1963-08-16,2000.0
1963-08-17,2100.0
1963-08-18,2500.0
1963-08-19,3400.0
1963-08-20,1000.0
1963-08-21,2899.9375
1963-08-22,900.0625
1963-08-23,1200.0
1963-08-24,2500.0
1963-08-25,2700.0
1963-08-26,1100.0
1963-08-27,1400.0
1963-08-28,2500.0
1963-08-29,699.9375
1963-08-30,1600.0625
1963-08-31,700.0
1963-09-01,1900.0
1963-09-02,1799.9375
1963-09-03,1900.0625
1963-09-04,2500.0
1963-09-05,1500.0
1963-09-06,1500.0
1963-09-07,2200.0
1963-09-08,2000.0
1963-09-09,2100.0
1963-09-10,2600.0
1963-09-11,2500.0
1963-09-12,1600.0
1963-09-13,1599.9375
1963-09-14,1300.0625
1963-09-15,1400.0
1963-09-16,1400.0
1963-09-17,1399.9375
1963-09-18,1400.0625
1963-09-19,1500.0
1963-09-20,1700.0
1963-09-21,3600.0
1963-09-22,3799.9375
1963-09-23,3600.0625
1963-09-24,5399.9375
1963-09-25,3100.0625
1963-09-26,3700.0
1963-09-27,3699.9375
1963-09-28,3200.0625
1963-09-29,2700.0
1963-09-30,3000.0
1963-10-01,2300.0
1963-10-02,2299.9375
1963-10-03,2100.0625
1963-10-04,1899.9375
1963-10-05,1700.0625
1963-10-06,1799.9375
1963-10-07,1700.0625
1963-10-08,1799.9375
1963-10-09,1900.0625
1963-10-10,1599.9375
1963-10-11,1200.0625
1963-10-12,1299.9375
1963-10-13,1400.0625
1963-10-14,1400.0
1963-10-15,1500.0
1963-10-16,1300.0
1963-10-17,1300.0
1963-10-18,900.0
1963-10-19,1300.0
1963-10-20,1399.9375
1963-10-21,1300.0625
1963-10-22,1400.0
1963-10-23,1299.9375
1963-10-24,1500.0
1963-10-25,900.0625
1963-10-26,1400.0
1963-10-27,1300.0
1963-10-28,1399.9375
1963-10-29,1200.0625
1963-10-30,1200.0
1963-10-31,1300.0
1963-11-01,799.9375
1963-11-02,1500.0
1963-11-03,1400.0625
1963-11-04,1500.0
1963-11-05,1500.0
1963-11-06,900.0
1963-11-07,1199.9375
1963-11-08,1900.0625
1963-11-09,-500.0
1963-11-10,900.0
1963-11-11,1400.0
1963-11-12,1700.0
1963-11-13,1500.0
1963-11-14,1800.0
1963-11-15,1299.9375
1963-11-16,1300.0625
1963-11-17,1199.9375
1963-11-18,1300.0625
1963-11-19,1199.9375
1963-11-20,200.0625
1963-11-21,500.0
1963-11-22,700.0
1963-11-23,700.0
1963-11-24,800.0
1963-11-25,800.0
1963-11-26,700.0
1963-11-27,599.9375
1963-11-28,400.0625
1963-11-29,500.0
1963-11-30,300.0
1963-12-01,1100.0
1963-12-02,1100.0
1963-12-03,300.0
1963-12-04,0.0
1963-12-05,0.0
1963-12-06,-300.0
1963-12-07,-300.0
1963-12-08,-300.0
1963-12-09,-200.0
1963-12-10,-300.0
1963-12-11,-950.0
1963-12-12,-1050.0
1963-12-13,-1550.0
1963-12-14,-1550.0
1963-12-15,-1167.0
1963-12-16,-1167.0
1963-12-17,-1166.0
1963-12-18,-400.0
1963-12-19,-100.0
1963-12-20,-500.0
1963-12-21,-100.0
1963-12-22,0.0
1963-12-23,0.0
1963-12-24,-300.0
1963-12-25,-300.0625
1963-12-26,-500.0
1963-12-27,-799.9375
1963-12-28,-100.0
1963-12-29,-300.0
1963-12-30,-500.0
1963-12-31,-1200.0
1964-01-01,-1000.0
1964-01-02,-400.0
1964-01-03,-500.0
1964-01-04,-400.0
1964-01-05,-1100.0
1964-01-06,-1100.0
1964-01-07,-1000.0
1964-01-08,-800.0
1964-01-09,-1100.0
1964-01-10,-1200.0625
1964-01-11,-699.9375
1964-01-12,-1200.0
1964-01-13,-1100.0625
1964-01-14,-799.9375
1964-01-15,-1300.0
1964-01-16,-1250.0
1964-01-17,-1250.0
1964-01-18,-1300.0
1964-01-19,-1400.0
1964-01-20,-1200.0625
1964-01-21,-599.9375
1964-01-22,-1300.0
1964-01-23,-600.0625
1964-01-24,-799.9375
1964-01-25,-1200.0625
1964-01-26,-599.9375
1964-01-27,-600.0
1964-01-28,-1000.0
1964-01-29,-1100.0
1964-01-30,-700.0625
1964-01-31,-1399.9375
1964-02-01,-600.0625
1964-02-02,-399.9375
1964-02-03,-900.0
1964-02-04,-800.0
1964-02-05,-1400.0625
1964-02-06,-599.9375
1964-02-07,-1100.0
1964-02-08,-500.0
1964-02-09,-1100.0
1964-02-10,-700.0625
1964-02-11,-1199.9375
1964-02-12,-1500.0
1964-02-13,-300.0625
1964-02-14,-1000.0
1964-02-15,-699.9375
1964-02-16,-1100.0
1964-02-17,-900.0
1964-02-18,-300.0625
1964-02-19,-1299.9375
1964-02-20,-1200.0625
1964-02-21,-799.9375
1964-02-22,-500.0
1964-02-23,-1100.0
1964-02-24,-200.0
1964-02-25,-900.0625
1964-02-26,-799.9375
1964-02-27,-800.0
1964-02-28,-700.0
1964-02-29,-1100.0
1964-03-01,-300.0
1964-03-02,0.0
1964-03-03,0.0
1964-03-04,-500.0
1964-03-05,-300.0625
1964-03-06,-699.9375
1964-03-07,0.0
1964-03-08,-700.0
1964-03-09,100.0
1964-03-10,-700.0625
1964-03-11,-599.9375
1964-03-12,200.0
1964-03-13,0.0
1964-03-14,0.0
1964-03-15,0.0
1964-03-16,-200.0
1964-03-17,200.0
1964-03-18,399.9375
1964-03-19,100.0625
1964-03-20,0.0
1964-03-21,500.0
1964-03-22,600.0
1964-03-23,500.0
1964-03-24,200.0
1964-03-25,300.0
1964-03-26,1000.0
1964-03-27,-300.0
1964-03-28,200.0
1964-03-29,100.0
1964-03-30,1500.0
1964-03-31,2000.0
1964-04-01,1700.0
1964-04-02,1800.0
1964-04-03,1799.9375
1964-04-04,1400.0625
1964-04-05,2100.0
1964-04-06,1900.0
1964-04-07,1300.0
1964-04-08,2299.9375
1964-04-09,2200.0625
1964-04-10,2799.9375
1964-04-11,2200.0625
1964-04-12,2299.9375
1964-04-13,1200.0625
1964-04-14,900.0
1964-04-15,2100.0
1964-04-16,2700.0
1964-04-17,3599.9375
1964-04-18,3200.0625
1964-04-19,3900.0
1964-04-20,3800.0
1964-04-21,3800.0
1964-04-22,3299.9375
1964-04-23,4700.0625
1964-04-24,2700.0
1964-04-25,2300.0
1964-04-26,3500.0
1964-04-27,2500.0
1964-04-28,2200.0
1964-04-29,2800.0
1964-04-30,3000.0
1964-05-01,2500.0
1964-05-02,3799.9375
1964-05-03,2700.0625
1964-05-04,2600.0
1964-05-05,3699.9375
1964-05-06,3900.0625
1964-05-07,2800.0
1964-05-08,3200.0
1964-05-09,2400.0
1964-05-10,3500.0
1964-05-11,1300.0
1964-05-12,2399.9375
1964-05-13,2400.0625
1964-05-14,3099.9375
1964-05-15,2500.0
1964-05-16,3500.0
1964-05-17,4100.0625
1964-05-18,2300.0
1964-05-19,1599.9375
1964-05-20,3700.0625
1964-05-21,6200.0
1964-05-22,6800.0
1964-05-23,7899.9375
1964-05-24,10100.125
1964-05-25,8699.9375
1964-05-26,11099.9375
1964-05-27,11000.0625
1964-05-28,11100.0
1964-05-29,9500.0
1964-05-30,11400.0
1964-05-31,11400.0
1964-06-01,12100.0
1964-06-02,10700.125
1964-06-03,7600.0
1964-06-04,10599.875
1964-06-05,10000.0
1964-06-06,12000.0
1964-06-07,12800.125
1964-06-08,12600.0
1964-06-09,13299.875
1964-06-10,12000.0
1964-06-11,12200.125
1964-06-12,12500.0
1964-06-13,12199.875
1964-06-14,13400.0
1964-06-15,11600.0
1964-06-16,11500.0
1964-06-17,13000.0
1964-06-18,16000.0
1964-06-19,14100.0
1964-06-20,14600.125
1964-06-21,14699.875
1964-06-22,13300.125
1964-06-23,12199.875
1964-06-24,11800.125
1964-06-25,12299.875
1964-06-26,10900.0
1964-06-27,8900.125
1964-06-28,10699.875
1964-06-29,10400.0
1964-06-30,10900.125
1964-07-01,10799.875
1964-07-02,10900.0
1964-07-03,10000.0
1964-07-04,10400.0
1964-07-05,10100.0
1964-07-06,8700.125
1964-07-07,7500.0
1964-07-08,7699.875
1964-07-09,6200.0
1964-07-10,7700.125
1964-07-11,7199.875
1964-07-12,7300.125
1964-07-13,7199.875
1964-07-14,4200.125
1964-07-15,5399.875
1964-07-16,5900.0
1964-07-17,6000.0
1964-07-18,6600.0
1964-07-19,6800.0
1964-07-20,5500.0
1964-07-21,6800.125
1964-07-22,4799.875
1964-07-23,4600.0
1964-07-24,4200.125
1964-07-25,5699.875
1964-07-26,5800.125
1964-07-27,3900.0
1964-07-28,1600.0
1964-07-29,1199.875
1964-07-30,-500.0
1964-07-31,0.0
1964-08-01,-699.875
1964-08-02,0.0
1964-08-03,0.0
1964-08-04,500.0
1964-08-05,-500.0
1964-08-06,-1100.0
1964-08-07,-1900.0
1964-08-08,-900.125
1964-08-09,200.0
1964-08-10,-899.875
1964-08-11,-2500.0
1964-08-12,-2600.125
1964-08-13,-2100.0
1964-08-14,-2000.0
1964-08-15,-2799.875
1964-08-16,-1600.125
1964-08-17,-399.875
1964-08-18,-1200.125
1964-08-19,0.0
1964-08-20,-2299.875
1964-08-21,-2500.0
1964-08-22,-1800.125
1964-08-23,-1400.0
1964-08-24,-2100.0
1964-08-25,-1800.0
1964-08-26,-1600.0
1964-08-27,-2299.875
1964-08-28,-1400.0
1964-08-29,-1800.125
1964-08-30,-1100.0
1964-08-31,-2300.0
1964-09-01,-2500.0
1964-09-02,-2200.0
1964-09-03,-2800.0
1964-09-04,-2899.875
1964-09-05,-700.125
1964-09-06,0.0
1964-09-07,200.125
1964-09-08,-1800.125
1964-09-09,-3400.0
1964-09-10,-2500.0
1964-09-11,-2600.0
1964-09-12,-1800.0
1964-09-13,-700.0
1964-09-14,-2500.0
1964-09-15,-2500.0
1964-09-16,-2000.0
1964-09-17,-2900.0
1964-09-18,-2699.875
1964-09-19,-2200.125
1964-09-20,-2000.0
1964-09-21,-4700.0
1964-09-22,-4699.875
1964-09-23,-4700.125
1964-09-24,-5500.0
1964-09-25,-5600.0
1964-09-26,-5900.0
1964-09-27,-4699.875
1964-09-28,-5500.0
1964-09-29,-6300.125
1964-09-30,-6400.0
1964-10-01,-6299.875
1964-10-02,-6600.0
1964-10-03,-4100.125
1964-10-04,-3500.0
1964-10-05,-2799.875
1964-10-06,-3200.125
1964-10-07,-4200.0
1964-10-08,-4300.0
1964-10-09,-4500.0
1964-10-10,-4100.0
1964-10-11,-3400.0
1964-10-12,-4700.0
1964-10-13,-4699.875
1964-10-14,-4700.125
1964-10-15,-4900.0
1964-10-16,-4500.0
1964-10-17,-3900.0
1964-10-18,-4000.0
1964-10-19,-3899.875
1964-10-20,-4000.0
1964-10-21,-4000.0
1964-10-22,-4200.125
1964-10-23,-4399.875
1964-10-24,-4600.125
1964-10-25,-3799.875
1964-10-26,-3800.125
1964-10-27,-3699.875
1964-10-28,-3900.125
1964-10-29,-4199.875
1964-10-30,-4000.0
1964-10-31,-3500.0
1964-11-01,-4100.125
1964-11-02,-4100.0
1964-11-03,-3699.875
1964-11-04,-3500.0
1964-11-05,-3300.125
1964-11-06,-3699.875
1964-11-07,-2950.125
1964-11-08,-2950.0
1964-11-09,-3500.0
1964-11-10,-3400.0
1964-11-11,-3100.0
1964-11-12,-3300.0
1964-11-13,-2600.0
1964-11-14,-4199.875
1964-11-15,-4300.125
1964-11-16,-4400.0
1964-11-17,-4299.875
1964-11-18,-4400.125
1964-11-19,-4000.0
1964-11-20,-4000.0
1964-11-21,-4199.875
1964-11-22,-3800.125
1964-11-23,-4000.0
1964-11-24,-3900.0
1964-11-25,-3000.0
1964-11-26,-3400.0
1964-11-27,-3100.0
1964-11-28,-3000.0
1964-11-29,-2799.875
1964-11-30,-3100.125
1964-12-01,-2700.0
1964-12-02,-3400.0
1964-12-03,-4100.0
1964-12-04,-4699.875
1964-12-05,-5200.125
1964-12-06,-5699.875
1964-12-07,-6400.125
1964-12-08,-6300.0
1964-12-09,-5799.875
1964-12-10,-5740.125
1964-12-11,-3259.875
1964-12-12,-2900.125
1964-12-13,-4498.0
1964-12-14,-6574.0
1964-12-15,-6228.0
1964-12-16,-5200.0
1964-12-17,-4699.875
1964-12-18,-6084.125
1964-12-19,-5850.0
1964-12-20,-5616.0
1964-12-21,-5849.875
1964-12-22,-3800.125
1964-12-23,-3799.875
1964-12-24,-2800.125
1964-12-25,-2400.0
1964-12-26,-2699.875
1964-12-27,-4060.125
1964-12-28,-4965.0
1964-12-29,-5925.0
1964-12-30,-5925.0
1964-12-31,-5925.0
1965-01-01,-5199.875
1965-01-02,-6000.0
1965-01-03,-5470.125
1965-01-04,-6200.0
1965-01-05,-5600.0
1965-01-06,-5130.0
1965-01-07,-5099.875
1965-01-08,-6000.0
1965-01-09,-5700.125
1965-01-10,-5100.0
1965-01-11,-5800.0
1965-01-12,-4900.0
1965-01-13,-4900.0
1965-01-14,-2300.0
1965-01-15,-3090.0
1965-01-16,-6710.0
1965-01-17,-4800.0
1965-01-18,-6700.0
1965-01-19,-6700.0625
1965-01-20,-6299.9375
1965-01-21,-6100.0
1965-01-22,-7100.0
1965-01-23,-6000.0
1965-01-24,-4900.0
1965-01-25,-6600.0
1965-01-26,-7200.0
1965-01-27,-6800.0
1965-01-28,-6300.0
1965-01-29,-4900.0
1965-01-30,-4200.0
1965-01-31,-1100.0
1965-02-01,-4000.0
1965-02-02,-5900.0
1965-02-03,-4100.0
1965-02-04,-4700.0
1965-02-05,-5300.0
1965-02-06,-4700.0
1965-02-07,-4500.0
1965-02-08,-6600.0
1965-02-09,-4800.0625
1965-02-10,-6099.9375
1965-02-11,-6400.0625
1965-02-12,-6099.9375
1965-02-13,-6400.0625
1965-02-14,-4799.9375
1965-02-15,-7000.0
1965-02-16,-6200.0625
1965-02-17,-6899.9375
1965-02-18,-5400.0
1965-02-19,-5500.0
1965-02-20,-4400.0
1965-02-21,-4300.0625
1965-02-22,-4299.9375
1965-02-23,-5200.0625
1965-02-24,-2599.9375
1965-02-25,-2900.0625
1965-02-26,-5000.0
1965-02-27,-4099.9375
1965-02-28,-4200.0
1965-03-01,-3600.0
1965-03-02,-3800.0
1965-03-03,-3800.0625
1965-03-04,-3599.9375
1965-03-05,-3600.0
1965-03-06,-3400.0
1965-03-07,-2900.0625
1965-03-08,-4199.9375
1965-03-09,-5500.0
1965-03-10,-6000.0
1965-03-11,-6000.0
1965-03-12,-5800.0625
1965-03-13,-5899.9375
1965-03-14,-4600.0625
1965-03-15,-5299.9375
1965-03-16,-5600.0
1965-03-17,-4800.0
1965-03-18,-6400.0
1965-03-19,-6000.0
1965-03-20,-6400.0625
1965-03-21,-5899.9375
1965-03-22,-5300.0
1965-03-23,-5100.0
1965-03-24,-6300.0
1965-03-25,-5800.0
1965-03-26,-6100.0625
1965-03-27,-5399.9375
1965-03-28,-5000.0
1965-03-29,-5500.0
1965-03-30,-5100.0625
1965-03-31,-4299.9375
1965-04-01,-3300.0
1965-04-02,-1300.0
1965-04-03,-1500.0
1965-04-04,-3100.0625
1965-04-05,-3099.9375
1965-04-06,-3900.0625
1965-04-07,-4399.9375
1965-04-08,-3800.0
1965-04-09,-3100.0
1965-04-10,-1700.0625
1965-04-11,-2599.9375
1965-04-12,-4500.0
1965-04-13,-4200.0
1965-04-14,-4600.0
1965-04-15,-4800.0
1965-04-16,-4200.0
1965-04-17,-4200.0
1965-04-18,-4400.0625
1965-04-19,-4299.9375
1965-04-20,-3900.0
1965-04-21,-3800.0625
1965-04-22,-3099.9375
1965-04-23,-2600.0
1965-04-24,-2500.0
1965-04-25,-1400.0
1965-04-26,-2100.0
1965-04-27,199.9375
1965-04-28,1000.0
1965-04-29,800.0625
1965-04-30,-300.0625
1965-05-01,3700.0625
1965-05-02,2799.9375
1965-05-03,3600.0625
1965-05-04,2899.9375
1965-05-05,3400.0625
1965-05-06,3300.0
1965-05-07,1700.0
1965-05-08,4300.0
1965-05-09,4500.0
1965-05-10,4400.0
1965-05-11,5000.0
1965-05-12,5300.0
1965-05-13,6300.0
1965-05-14,9600.0
1965-05-15,10800.0
1965-05-16,7200.0
1965-05-17,8100.0
1965-05-18,5700.0
1965-05-19,5399.9375
1965-05-20,5600.0625
1965-05-21,5100.0
1965-05-22,4900.0
1965-05-23,4100.0
1965-05-24,8000.0
1965-05-25,9700.0
1965-05-26,9599.9375
1965-05-27,8800.0625
1965-05-28,8000.0
1965-05-29,8199.9375
1965-05-30,8700.0625
1965-05-31,9299.9375
1965-06-01,8700.0625
1965-06-02,11400.0
1965-06-03,9399.9375
1965-06-04,11700.0625
1965-06-05,11799.9375
1965-06-06,10100.0625
1965-06-07,9899.9375
1965-06-08,9500.0
1965-06-09,11700.0625
1965-06-10,25400.0
1965-06-11,30200.0
1965-06-12,27600.0
1965-06-13,29400.0
1965-06-14,30199.9375
1965-06-15,24900.0625
1965-06-16,21400.0
1965-06-17,22200.0
1965-06-18,24500.0
1965-06-19,25800.125
1965-06-20,28299.875
1965-06-21,25400.0
1965-06-22,23400.0
1965-06-23,21400.125
1965-06-24,22599.875
1965-06-25,23300.125
1965-06-26,26100.0
1965-06-27,26299.875
1965-06-28,29900.0
1965-06-29,28400.0
1965-06-30,30800.125
1965-07-01,31299.875
1965-07-02,23400.0
1965-07-03,20200.0
1965-07-04,19000.0
1965-07-05,17400.0
1965-07-06,17200.125
1965-07-07,18299.875
1965-07-08,18500.0
1965-07-09,19100.0
1965-07-10,18500.0
1965-07-11,18000.0
1965-07-12,18400.0
1965-07-13,17600.0
1965-07-14,17100.125
1965-07-15,17799.875
1965-07-16,17600.0
1965-07-17,16500.0
1965-07-18,17900.0
1965-07-19,16300.125
1965-07-20,12699.875
1965-07-21,14900.0
1965-07-22,12600.0
1965-07-23,14600.0
1965-07-24,11300.0
1965-07-25,13700.0
1965-07-26,14200.125
1965-07-27,12799.875
1965-07-28,11800.0
1965-07-29,11400.125
1965-07-30,11099.875
1965-07-31,11200.0
1965-08-01,11200.125
1965-08-02,9699.875
1965-08-03,11300.125
1965-08-04,8400.0
1965-08-05,5500.0
1965-08-06,7199.875
1965-08-07,6400.125
1965-08-08,6099.875
1965-08-09,6100.0
1965-08-10,4800.125
1965-08-11,5599.875
1965-08-12,4300.125
1965-08-13,4600.0
1965-08-14,4799.875
1965-08-15,4500.0
1965-08-16,5400.0
1965-08-17,4100.0
1965-08-18,5400.0
1965-08-19,6400.0
1965-08-20,3500.0
1965-08-21,6300.125
1965-08-22,6800.0
1965-08-23,5700.0
1965-08-24,6000.0
1965-08-25,6800.0
1965-08-26,4899.875
1965-08-27,5200.0
1965-08-28,4400.125
1965-08-29,4899.875
1965-08-30,2200.0
1965-08-31,2200.0
1965-09-01,3300.0
1965-09-02,3600.125
1965-09-03,3300.0
1965-09-04,1700.0
1965-09-05,11899.875
1965-09-06,24800.0
1965-09-07,30900.0
1965-09-08,33700.25
1965-09-09,29000.0
1965-09-10,28899.75
1965-09-11,28100.25
1965-09-12,26500.0
1965-09-13,25599.75
1965-09-14,23000.0
1965-09-15,21900.0
1965-09-16,16500.0
1965-09-17,9900.0
1965-09-18,8100.0
1965-09-19,7200.0
1965-09-20,7600.0
1965-09-21,8100.0
1965-09-22,7600.0
1965-09-23,6100.0
1965-09-24,7900.0
1965-09-25,7300.0
1965-09-26,5200.0
1965-09-27,5500.0
1965-09-28,6200.0
1965-09-29,3900.0
1965-09-30,4000.0
1965-10-01,3300.0
1965-10-02,3000.0
1965-10-03,3000.0
1965-10-04,3000.0
1965-10-05,2000.0
1965-10-06,2000.0
1965-10-07,3000.0
1965-10-08,0.0
1965-10-09,0.0
1965-10-10,1000.0
1965-10-11,0.0
1965-10-12,0.0
1965-10-13,0.0
1965-10-14,800.0
1965-10-15,200.0
1965-10-16,0.0
1965-10-17,-650.0
1965-10-18,-350.0
1965-10-19,0.0
1965-10-20,-1000.0
1965-10-21,-2000.0
1965-10-22,-2000.0
1965-10-23,-2000.0
1965-10-24,-2000.0
1965-10-25,2000.0
1965-10-26,1000.0
1965-10-27,2000.0
1965-10-28,2000.0
1965-10-29,1000.0
1965-10-30,1000.0
1965-10-31,2000.0
1965-11-01,1000.0
1965-11-02,1000.0
1965-11-03,0.0
1965-11-04,1000.0
1965-11-05,1000.0
1965-11-06,1000.0
1965-11-07,1000.0
1965-11-08,1000.0
1965-11-09,0.0
1965-11-10,1000.0
1965-11-11,1000.0
1965-11-12,1000.0
1965-11-13,-1000.0
1965-11-14,-1000.0
1965-11-15,-2000.0
1965-11-16,-1000.0
1965-11-17,-2000.0
1965-11-18,-2000.0
1965-11-19,-3000.0
1965-11-20,-2100.0
1965-11-21,-1900.0
1965-11-22,-3000.0
1965-11-23,-2000.0
1965-11-24,-3000.0
1965-11-25,-3000.0
1965-11-26,-2925.0
1965-11-27,-3075.0
1965-11-28,-3700.0
1965-11-29,-3700.0
1965-11-30,-2600.0
1965-12-01,-3000.0
1965-12-02,-4000.0
1965-12-03,-4000.0
1965-12-04,-4000.0
1965-12-05,-3000.0
1965-12-06,-3000.0
1965-12-07,-3000.0
1965-12-08,-3000.0
1965-12-09,-3430.0
1965-12-10,-3570.0
1965-12-11,-2000.0
1965-12-12,0.0
1965-12-13,-3000.0
1965-12-14,-3000.0
1965-12-15,-4000.0
1965-12-16,-4000.0
1965-12-17,-3000.0
1965-12-18,-3475.0
1965-12-19,-3525.0
1965-12-20,-3300.0
1965-12-21,-3700.0
1965-12-22,-2000.0
1965-12-23,-700.0
1965-12-24,-300.0
1965-12-25,-300.0
1965-12-26,300.0
1965-12-27,0.0
1965-12-28,-500.0
1965-12-29,500.0
1965-12-30,500.0
1965-12-31,500.0
1966-01-01,-500.0
1966-01-02,-500.0
1966-01-03,-1000.0
1966-01-04,-1000.0
1966-01-05,-1000.0
1966-01-06,0.0
1966-01-07,0.0
1966-01-08,1000.0
1966-01-09,-1000.0
1966-01-10,-1000.0
1966-01-11,0.0
1966-01-12,-1000.0
1966-01-13,0.0
1966-01-14,-500.0
1966-01-15,-500.0
1966-01-16,-1000.0
1966-01-17,0.0
1966-01-18,0.0
1966-01-19,-1000.0
1966-01-20,-1000.0
1966-01-21,-1000.0
1966-01-22,-1000.0
1966-01-23,0.0
1966-01-24,-1500.0
1966-01-25,-1500.0
1966-01-26,-1000.0
1966-01-27,-1500.0
1966-01-28,-1500.0
1966-01-29,0.0
1966-01-30,0.0
1966-01-31,-2000.0
1966-02-01,-1000.0
1966-02-02,-1000.0
1966-02-03,-1000.0
1966-02-04,-2000.0
1966-02-05,-1000.0
1966-02-06,-1000.0
1966-02-07,-1000.0
1966-02-08,-1000.0
1966-02-09,-2000.0
1966-02-10,0.0
1966-02-11,-2000.0
1966-02-12,-1000.0
1966-02-13,0.0
1966-02-14,-2000.0
1966-02-15,0.0
1966-02-16,-1000.0
1966-02-17,-2000.0
1966-02-18,-1000.0
1966-02-19,-1400.0
1966-02-20,-600.0
1966-02-21,-1000.0
1966-02-22,0.0
1966-02-23,-1000.0
1966-02-24,-1000.0
1966-02-25,-1500.0
1966-02-26,-1500.0
1966-02-27,-1000.0
1966-02-28,-1500.0
1966-03-01,-1500.0
1966-03-02,-1000.0
1966-03-03,-1000.0
1966-03-04,-1000.0
1966-03-05,-1000.0
1966-03-06,-500.0
1966-03-07,-500.0
1966-03-08,-1000.0
1966-03-09,-1000.0
1966-03-10,-1000.0
1966-03-11,1000.0
1966-03-12,0.0
1966-03-13,1000.0
1966-03-14,2000.0
1966-03-15,1000.0
1966-03-16,2000.0
1966-03-17,1000.0
1966-03-18,2000.0
1966-03-19,4000.0
1966-03-20,2000.0
1966-03-21,1000.0
1966-03-22,1000.0
1966-03-23,1000.0
1966-03-24,2000.0
1966-03-25,1000.0
1966-03-26,3000.0
1966-03-27,2000.0
1966-03-28,3000.0
1966-03-29,3000.0
1966-03-30,3000.0
1966-03-31,4000.0
1966-04-01,2000.0
1966-04-02,4000.0
1966-04-03,7000.0
1966-04-04,2000.0
1966-04-05,2000.0
1966-04-06,6000.0
1966-04-07,6000.0
1966-04-08,4000.0
1966-04-09,5000.0
1966-04-10,7000.0
1966-04-11,2000.0
1966-04-12,1000.0
1966-04-13,1000.0
1966-04-14,3000.0
1966-04-15,1000.0
1966-04-16,1000.0
1966-04-17,1250.0
1966-04-18,750.0
1966-04-19,0.0
1966-04-20,-1000.0
1966-04-21,2000.0
1966-04-22,1000.0
1966-04-23,-1000.0
1966-04-24,0.0
1966-04-25,0.0
1966-04-26,0.0